Search your local weather  

 
Advertise Here

Hazardous Weather Conditions

No active alerts for LOS ANGELES, CALIFORNIA

Current Conditions: LOS ANGELES, CALIFORNIA

Fair


66.0 F

Last Updated on Feb 28 2021, 3:51 pm PST
Humidity: 26%
Wind Speed: W 6.9 mph
Barometer 30.13 in
Dewpoint: 30.0 F
Visibility: 10.00 mi
Precip: --
Heat Index: NA
Wind Chill: NA
Current conditions at:

Santa Monica, Santa Monica Municipal Airport, CA (KSMO)

Lat: 34.01583 Lon: -118.45139

Local Radar Image active severe weather and emergency alerts image image weather storm and storm spotter reports image weather observation monitoring service image
Local
Radar
Active
Alerts
Storm Reports Weather
Monitoring

5 Day Forecast for LOS ANGELES, CALIFORNIA (90001)

Sunday

Clear

High 75 °F
Sunday
Night
Mostly Clear

Low 47 °F
Monday

Mostly Sunny

High 74 °F
Monday
Night
Partly Cloudy

Low 47 °F
Tuesday

Slight Chance of Rain
High 68 °F
Tuesday
Night
Chance of Rain
Low 46 °F
Wednesday

Chance of Rain
High 64 °F
Wednesday
Night
Partly Cloudy

Low 51 °F
Thursday

Partly Sunny

High 69 °F

Sign-up For Email & Text Message Weather Alert Notification Services


Advertise Here

Observation History for LOS ANGELES, CALIFORNIA


Time Wind
(mph)
Vis
(mi)
Weather Precip (in) Temperature (F) Relative
Humidity
Wind
Chill
(F)
Heat
Index
(F)
Pressure
Air Dwpt altimeter
(in)
sea level
(mb)
3:51 pm PST W 6.9 10.00 Fair -- 66.0 30.0 26% NA NA 30.13 1020.1
2:51 pm PST SW 10.4 10.00 Fair -- 69.0 18.0 14% NA NA 30.13 1020.1
1:51 pm PST S 9.2 10.00 Fair -- 70.0 17.1 13% NA NA 30.13 1020.1
12:51 pm PST S 11.5 10.00 Fair -- 69.0 21.0 16% NA NA 30.13 1020.3
11:51 am PST SW 10.4 10.00 Fair -- 67.0 24.1 20% NA NA 30.16 1021.2
10:51 am PST 5.8 10.00 Fair -- 69.0 14.0 12% NA NA 30.16 1021.2
9:51 am PST 5.8 10.00 Fair -- 66.0 25.0 21% NA NA 30.16 1021.1
8:51 am PST S 3.5 10.00 Fair -- 60.0 37.0 42% NA NA 30.16 1021.3
7:51 am PST N 0.0 10.00 Fair -- 55.0 39.9 57% NA NA 30.14 1020.6
6:51 am PST E 3.5 10.00 Fair -- 50.0 37.0 61% NA NA 30.11 1019.6
5:51 am PST 3.5 10.00 Fair -- 53.0 24.1 32% NA NA 30.08 1018.5
4:51 am PST N 0.0 10.00 Fair -- 51.0 36.0 56% NA NA 30.06 1017.8
3:51 am PST NE 4.6 10.00 Fair -- 52.0 41.0 66% 51 NA 30.05 1017.3
2:51 am PST N 0.0 10.00 Fair -- 51.0 43.0 74% NA NA 30.03 1016.9
1:51 am PST NE 4.6 10.00 Fair -- 53.0 44.1 72% 52 NA 30.03 1016.9
12:51 am PST E 3.5 10.00 Fair -- 54.0 42.1 64% NA NA 30.02 1016.5
11:51 pm PST NE 4.6 10.00 Fair -- 59.0 30.9 35% 59 NA 30.00 1015.8
10:51 pm PST NE 9.2 10.00 Fair -- 61.0 21.9 22% 60 NA 29.98 1014.9
9:51 pm PST N 13.8 G 21.9 10.00 Fair -- 61.0 21.0 21% 59 NA 29.96 1014.6
8:51 pm PST N 8.1 G 26.5 10.00 Fair -- 61.0 21.0 21% 60 NA 29.95 1014.0
7:51 pm PST N 12.7 G 23.0 10.00 Fair -- 62.0 19.9 20% 60 NA 29.93 1013.5
6:51 pm PST N 12.7 G 28.8 10.00 Fair -- 64.0 18.0 17% NA NA 29.92 1013.1
5:51 pm PST N 9.2 G 23.0 10.00 Fair -- 66.0 19.0 16% NA NA 29.91 1012.6
4:51 pm PST N 9.2 G 26.5 10.00 Fair -- 70.0 16.0 12% NA NA 29.88 1011.9

Regional Weather Observation

Los Angeles / USC Campus Downtown, CA (KCQT)

Fair
73.0 F

Burbank - Bob Hope Airport, CA (KBUR)

Fair
70.0 F

Van Nuys, Van Nuys Airport, CA (KVNY)

Fair
70.0 F

Los Angeles, Whiteman Airport, CA (KWHP)

Clear
68.0 F

El Monte, CA (KEMT)

Fair
72.0 F

MOUNT WILSON, CA (KMWS)

NULL
43.0 F
Advertise Here

Advertise Here